Regional Weather Roundup
Issued by NWS

Home | Current Version | Previous Version | Graphics & Text | Print | Product List | Glossary On
Versions: 1 2 3 4 5 6 7 8 9 10 11 12 13 14 15 16 17 18 19 20 21 22 23 24 25 26 27 28 29 30 31 32 33 34 35 36 37 38 39 40 41 42 43 44 45 46 47 48 49 50
247
ASUS43 KMKX 051700
RWRWI

WISCONSIN REGIONAL WEATHER ROUNDUP
NATIONAL WEATHER SERVICE MILWAUKEE/SULLIVAN WI
1100 AM CST FRI FEB 05 2016

NOTE: "FAIR" INDICATES FEW OR NO CLOUDS BELOW 12,000 FEET WITH NO
SIGNIFICANT WEATHER AND/OR OBSTRUCTIONS TO VISIBILITY.

WIZ001-002-006>008-014>016-023>028-051800-
NORTHWEST WISCONSIN

CITY           SKY/WX    TMP DP  RH WIND       PRES   REMARKS
SUPERIOR ARPT  CLOUDY    16   9  73 S3        30.30F
ASHLAND        CLOUDY    17  10  74 SW3       30.31F
HAYWARD        CLOUDY    16   9  74 S6        30.29F WCI   7
SIREN          MOSUNNY   14  11  90 S6        30.31F WCI   5
CUMBERLAND     MOSUNNY   10   5  79 CALM      30.30S
RICE LAKE      MOSUNNY    8   6  88 CALM      30.34S
CHETEK         MOSUNNY   12  10  90 CALM      30.34R
LADYSMITH      MOSUNNY   10   8  89 CALM      30.33S
EAU CLAIRE     CLOUDY    15  13  91 CALM      30.35S
MENOMONIE      MOSUNNY   13   8  79 E3        30.35S
NEW RICHMOND   CLOUDY    14  11  89 S6        30.33S WCI   5
OSCEOLA        CLOUDY    14  13  98 S8        30.36S WCI   3
$$

WIZ003>005-009-010-017-018-051800-
NORTH CENTRAL WISCONSIN

CITY           SKY/WX    TMP DP  RH WIND       PRES   REMARKS
MANITOWISH WTR MOSUNNY   14  13  96 S3        30.26R
ARBOR VITAE    SUNNY     17  13  86 CALM      30.26R
WOODRUFF       SUNNY     17  13  86 CALM      30.26R
RHINELANDER    SUNNY     17  10  74 SW3       30.26S
EAGLE RIVER    SUNNY     14  10  84 CALM      30.25S
LAND O LAKES   SUNNY     18  11  74 N3        30.25S
PHILLIPS       MOSUNNY   13  11  91 CALM      30.28S
TOMAHAWK       CLOUDY    17  10  75 CALM      30.29R
MEDFORD        MOSUNNY   12  10  92 CALM      30.29R
MERRILL        CLOUDY    17  13  86 CALM      30.31R
$$

WIZ029-030-035-036-043>047-051800-
CENTRAL WISCONSIN

CITY           SKY/WX    TMP DP  RH WIND       PRES   REMARKS
WAUSAU         MOSUNNY   20  12  71 NW6       30.30R WCI  12
MOSINEE        NOT AVBL
MARSHFIELD     CLOUDY    16  10  77 W6        30.31S HAZE    WCI   7
STEVENS POINT  SUNNY     19  12  74 W6        30.33R WCI  11
WAUPACA        SUNNY     27  15  62 SW3       30.35S
WAUTOMA        NOT AVBL
WISC RAPIDS    SUNNY     21  13  71 CALM      30.35S
CAMP DOUGLAS   NOT AVBL
$$

WIZ011>013-019>022-031-037>040-048>050-051800-
NORTHEAST WISCONSIN

CITY           SKY/WX    TMP DP  RH WIND       PRES   REMARKS
ANTIGO         SUNNY     10   8  92 CALM      30.28S FOG
SHAWANO        SUNNY     24  14  65 CALM      30.34S
OCONTO         SUNNY     22  13  68 NW6       30.34S WCI  14
STURGEON BAY   SUNNY     21  12  68 W8        30.34F WCI  12
GREEN BAY      SUNNY     21  13  71 NW8       30.34F WCI  11
MANITOWOC      NOT AVBL
APPLETON       MOSUNNY   19  12  73 VRB6      30.32S WCI  11
CLINTONVILLE   SUNNY     21  14  73 SW3       30.34S
OSHKOSH        CLOUDY    21  14  74 W5        30.34S WCI  15
$$

WIZ032>034-041-042-053>061-051800-
SOUTHWEST WISCONSIN

CITY           SKY/WX    TMP DP  RH WIND       PRES   REMARKS
LA CROSSE      CLOUDY    17  12  80 S5        30.39S WCI  10
SPARTA         CLOUDY    17  15  95 W6        30.39R WCI   8
VIROQUA        CLOUDY    17  16  97 W3        30.34S
BOSCOBEL       CLOUDY    23  16  74 S6        30.40S WCI  16
PRAIRIE DU CHI CLOUDY    19  11  73 CALM      30.40S
PLATTEVILLE    SUNNY     23  19  82 CALM      30.38R
$$

WIZ056-057-062-063-064-067-068-051800-
SOUTH CENTRAL WISCONSIN

CITY           SKY/WX    TMP DP  RH WIND       PRES   REMARKS
REEDSBURG      CLOUDY    22  16  78 CALM      30.36S
BARABOO/DELLS  CLOUDY    23  16  76 W5        30.36R WCI  16
LONE ROCK      CLOUDY    22  16  78 W3        30.39S
MINERAL POINT  CLOUDY    23  19  86 CALM      30.36R HAZE
MADISON        CLOUDY    26  16  65 W5        30.36S WCI  20
MIDDLETON      CLOUDY    26  18  73 NW3       30.37S
WATERTOWN      SUNNY     24  17  72 W6        30.36R WCI  17
MONROE         MOSUNNY   27  19  74 NW3       30.36S
JANESVILLE     MOSUNNY   28  19  69 N6        30.37S WCI  22
$$

WIZ051-052-058>065-066-070>072-051800-
SOUTHEAST WISCONSIN

CITY           SKY/WX    TMP DP  RH WIND       PRES   REMARKS
MILWAUKEE      MOSUNNY   27  17  66 W8        30.36R WCI  19
WAUKESHA       SUNNY     25  18  74 W6        30.36S WCI  18
MILWAUKEE/TIMM SUNNY    N/A N/A N/A NW8       30.36S
RACINE         SUNNY     28  17  63 NW8       30.37S WCI  20
BURLINGTON     CLOUDY    24  17  72 NW7       30.37R WCI  16
KENOSHA        CLOUDY    27  20  75 NW9       30.36R WCI  18
FOND DU LAC    FLURRIES  23  15  71 W6        30.35S WCI  16
SHEBOYGAN      MOSUNNY   24  14  65 NW8       30.34S WCI  15
WEST BEND      MOSUNNY   27  16  63 W7        30.34F WCI  19
JUNEAU         CLOUDY    22  15  74 SW3       30.36S
$$

LSZ147-162-051800-
LAKE SUPERIOR

STATION/POSITION TIME  TEMP    WIND        PRES    WAVE
                       AIR SEA DIR/SP/G            HT/PER
                 (UTC) (F)     (DEG/KT/KT) (MB)    (FT/S)
DEVILS ISLAND    1600   19     220/  8/ 11 1027.4F
PORT WING        1440   10     150/  3/  5   N/A
SAXON HARBOR     1640   20                 1026.1S
$$

LMZ867-665-643>646-051800-
LAKE MICHIGAN

STATION/POSITION TIME  TEMP    WIND        PRES    WAVE
                       AIR SEA DIR/SP/G            HT/PER
                 (UTC) (F)     (DEG/KT/KT) (MB)    (FT/S)
CHAMBERS ISLAND  1600   26     300/  8/ 13 1026.8R
ALGOMA LAKESHORE 1540          320/ 10/ 13   N/A
KEWAUNEE LAKESHO 1600   22     310/  7/ 13 1026.3R
SHEBOYGAN LAKESH 1600   23     310/ 12/ 15 1028.8F
PORT WASHINGTON  1600   26     310/  6/ 12 1028.4F
MILWAUKEE LAKESH 1610   26     300/ 11/ 13   N/A
KENOSHA   LAKESH 1600   26     320/ 10/ 13 1027.8S
$$

TC  - TEMPERATURE IN CELSIUS
VSB - VISIBILITY IN STATUTE MILES
WCI - WIND CHILL INDEX
HX  - HEAT INDEX





USA.gov is the U.S. government's official web portal to all federal, state and local government web resources and services.